Weather in Taushkasy

Russia / Chuvash Republic     55°51′42″N   47°34′22″E
temp.,
°C
wind,
m/s
gust,
m/s
humid.,
%
clouds,
%
prec.,
mm/h
press.,
hPa
HPBL,
m
4 august, wed
wed400:00+18sw2393100 0.3 101058
03:00+18sw2295100 0.3 101138
06:00+20wsw2389100 0.0 1011119
09:00+20wsw4586100 0.7 1012336
12:00+19nw2286100 2.5 1012151
15:00+24nw34609 2.9 10121196
18:00+23nne2264100 0.0 101282
21:00+20nne116723 0.0 101311
5 august, thu
thu500:00+17nw227672 0.0 101426
03:00+18nnw275795 0.0 1014179
06:00+16nnw4870100 0.0 1016225
09:00+21n575498 0.0 1016740
12:00+23nnw563794 0.0 10162427
15:00+23nw5637100 0.0 10162498
18:00+21nw344968 0.0 1017117
21:00+16n225479 0.0 101711
6 august, fri
fri600:00+14n225974 0.0 101811
03:00+13nne1162100 0.0 101811
06:00+16ne1160100 0.0 101841
09:00+21e234359 0.0 1018578
12:00+23e2135100 0.0 10181741
15:00+24e2135100 0.0 10171799
18:00+22ese234896 0.0 101768
21:00+19se474791 0.0 1017134
7 august, sat
sat700:00+19se494564 0.0 1016230
03:00+16sse495339 0.0 1016170
06:00+17sse395861 0.0 1017230
09:00+23s574286 0.0 1017571
12:00+25s364320 0.0 1017621
15:00+27ssw244441 0.0 1016321
18:00+25ssw334778 0.0 101645
21:00+21ssw225429 0.0 101611
8 august, sun
sun800:00+19se225881 0.0 101714
03:00+18sse225526 0.0 101713
06:00+20se115542 0.0 101848
09:00+26se234079 0.0 1018475
12:00+29se2333100 0.0 10171210
15:00+31se12289 0.0 10171832
18:00+28ene334168 0.0 101655
21:00+21ene71360100 0.0 1018299